"Pseudo-MPEC" for CCD57A2

Created 2024 Dec 5 9:31:15 UT using Find_Orb

Click here for an explanation of pseudo-MPECs

 
 Astrometry: 
     CCD57A2*1C2024 11 24.31792104 50 27.100+05 02 12.26   ~BO8l 19.84GVNEOCPG96
     CCD57A2 1C2024 11 24.32305504 50 30.815+05 05 57.26   ~BO8l 20.35GVNEOCPG96
     CCD57A2 1C2024 11 24.32819704 50 34.573+05 09 47.23   ~BO8l 19.61GVNEOCPG96
     CCD57A2 1C2024 11 24.33334904 50 38.224+05 13 31.98   ~BO8l 19.68GVNEOCPG96
     CCD57A2 KC2024 11 24.35792604 50 56.040+05 31 40.50   ~BOAH 19.22GVNEOCPI52
     CCD57A2 KC2024 11 24.35924904 50 56.980+05 32 38.40   ~BOAH 19.30GVNEOCPI52
     CCD57A2 KC2024 11 24.36056404 50 57.920+05 33 36.20   ~BOAH       VNEOCPI52
     CCD57A2 KB2024 11 24.56137704 54 53.677+08 03 20.42   ~BOEl 24.9 GXNEOCPQ06
     CCD57A2 KB2024 11 24.56864804 54 59.539+08 08 54.28   ~BOEl 19.1 GXNEOCPQ06
     CCD57A2 KB2024 11 24.57591704 55 05.352+08 14 26.52   ~BOEl 25.4 GXNEOCPQ06

Station data:
(G96) Mt. Lemmon Survey  (N32.442729 W110.788720)  US/Arizona.  Observer E.
   J. Christensen. 1.5-m reflector + 10K CCD.
(I52) Steward Observatory, Mt. Lemmon Station  (N32.442570 W110.788920)
   US/Arizona.  Observers T. A. Pruyne, B. M. Africano, E. J. Christensen, G.
   A. Farneth, D. C. Fuls, A. R. Gibbs, A. D. Grauer, H. Gröller, J. A.
   Johnson, R. A. Kowalski, S. M. Larson, G. J. Leonard, D. Rankin, R. L.
   Seaman, F. C. Shelly, K. W. Wierzchoś. 1.0-m prime focus + CCD.
(Q06) Tarui Observatory, Tarui  (N35.394791 E136.495470)  Japan.

Orbital elements:  CCD57A2
   Perihelion 2024 Dec 3.12543 +/- 0.422 TT =  3:00:37 (JD 2460647.62543)
Epoch 2024 Nov 24.0 TT = JDT 2460638.5   Earth MOID: 0.0102   Ma: 0.0693
M 353.21229033 +/- 0.31             (J2000 ecliptic)             AutoNEOCP
n   0.74382359 +/- 0.000786         Peri.    7.95806 +/- 0.45
a   1.20639469 +/- 0.000849         Node    63.75844 +/- 0.0035
e   0.1745665 +/- 0.000516          Incl.    7.42898 +/- 0.029
P   1.325/483.977d         H 29.92  G  0.15   U  8.0
q 0.99579855 +/- 0.000187    Q 1.41699082 +/- 0.00161
From 10 observations 2024 Nov. 24 (6.2 hr); mean residual 0".63
Residuals in arcseconds: 
241124 G96  .37-  .37+    241124 I52  .29+  .57+    241124 Q06  .06+  .58+    
241124 G96  .10-  1.2-    241124 I52  .04-  .11-    241124 Q06  .21-  .57-    
241124 G96  .72+  1.8+    241124 I52  .31-  .53-    
241124 G96  .20-  1.0-    241124 Q06  .16+  .04+    

Ephemerides (geocentric):
Date (UTC) HH   RA             Dec           delta  r     elong  mag " sig PA
---- --------  ------------   ------------  ------ ------ -----  --- --------
2024 12 05 10  10 55 07.379   +71 43 54.97  .02783 0.9956 110.7 24.5  901  94
2024 12 05 11  10 56 10.533   +71 43 42.77  .02793 0.9956 110.6 24.5  901  94
2024 12 05 12  10 57 13.186   +71 43 29.39  .02803 0.9956 110.6 24.5  902  94
2024 12 05 13  10 58 15.342   +71 43 14.85  .02813 0.9956 110.5 24.5  902  95
2024 12 05 14  10 59 17.004   +71 42 59.17  .02823 0.9956 110.4 24.6  903  95
2024 12 05 15  11 00 18.174   +71 42 42.39  .02833 0.9956 110.4 24.6  903  95
2024 12 05 16  11 01 18.857   +71 42 24.53  .02843 0.9956 110.3 24.6  903  95
2024 12 05 17  11 02 19.055   +71 42 05.63  .02853 0.9956 110.2 24.6  904  96
2024 12 05 18  11 03 18.771   +71 41 45.70  .02863 0.9956 110.2 24.6  904  96
2024 12 05 19  11 04 18.009   +71 41 24.76  .02873 0.9956 110.1 24.6  904  96
2024 12 05 20  11 05 16.773   +71 41 02.86  .02883 0.9956 110.1 24.6  905  96
2024 12 05 21  11 06 15.065   +71 40 40.00  .02894 0.9956 110.0 24.6  905  96
2024 12 05 22  11 07 12.888   +71 40 16.22  .02904 0.9956 110.0 24.6  905  97
2024 12 05 23  11 08 10.247   +71 39 51.53  .02914 0.9956 109.9 24.6  905  97
2024 12 06 00  11 09 07.144   +71 39 25.96  .02924 0.9957 109.8 24.6  906  97
2024 12 06 01  11 10 03.583   +71 38 59.54  .02934 0.9957 109.8 24.7  906  97
2024 12 06 02  11 10 59.567   +71 38 32.28  .02944 0.9957 109.7 24.7  906  98
2024 12 06 03  11 11 55.100   +71 38 04.20  .02954 0.9957 109.7 24.7  907  98
2024 12 06 04  11 12 50.185   +71 37 35.33  .02964 0.9957 109.6 24.7  907  98
2024 12 06 05  11 13 44.826   +71 37 05.69  .02974 0.9957 109.6 24.7  907  98
2024 12 06 06  11 14 39.025   +71 36 35.29  .02984 0.9957 109.5 24.7  907  98
2024 12 06 07  11 15 32.787   +71 36 04.16  .02994 0.9957 109.5 24.7  908  99
2024 12 06 08  11 16 26.115   +71 35 32.32  .03004 0.9957 109.4 24.7  908  99
2024 12 06 09  11 17 19.011   +71 34 59.78  .03015 0.9957 109.4 24.7  908  99
2024 12 06 10  11 18 11.480   +71 34 26.56  .03025 0.9957 109.3 24.7  909  99
2024 12 06 11  11 19 03.525   +71 33 52.69  .03035 0.9957 109.3 24.7  909 100
2024 12 06 12  11 19 55.150   +71 33 18.18  .03045 0.9957 109.2 24.8  909 100
2024 12 06 13  11 20 46.357   +71 32 43.05  .03055 0.9957 109.2 24.8  909 100
2024 12 06 14  11 21 37.151   +71 32 07.31  .03065 0.9957 109.1 24.8  910 100
2024 12 06 15  11 22 27.534   +71 31 30.98  .03075 0.9957 109.1 24.8  910 100
2024 12 06 16  11 23 17.511   +71 30 54.07  .03085 0.9957 109.0 24.8  910 101
2024 12 06 17  11 24 07.083   +71 30 16.62  .03095 0.9957 109.0 24.8  910 101
2024 12 06 18  11 24 56.256   +71 29 38.62  .03106 0.9957 108.9 24.8  911 101
2024 12 06 19  11 25 45.031   +71 29 00.09  .03116 0.9958 108.9 24.8  911 101
2024 12 06 20  11 26 33.413   +71 28 21.06  .03126 0.9958 108.8 24.8  911 101
2024 12 06 21  11 27 21.405   +71 27 41.53  .03136 0.9958 108.8 24.8  911 102
2024 12 06 22  11 28 09.010   +71 27 01.52  .03146 0.9958 108.7 24.8  912 102
2024 12 06 23  11 28 56.232   +71 26 21.04  .03156 0.9958 108.7 24.8  912 102
2024 12 07 00  11 29 43.073   +71 25 40.11  .03166 0.9958 108.7 24.9  912 102
2024 12 07 01  11 30 29.537   +71 24 58.74  .03177 0.9958 108.6 24.9  912 102
2024 12 07 02  11 31 15.628   +71 24 16.95  .03187 0.9958 108.6 24.9  912 102
2024 12 07 03  11 32 01.348   +71 23 34.74  .03197 0.9958 108.5 24.9  913 103
2024 12 07 04  11 32 46.701   +71 22 52.13  .03207 0.9958 108.5 24.9  913 103
2024 12 07 05  11 33 31.690   +71 22 09.13  .03217 0.9958 108.4 24.9  913 103
2024 12 07 06  11 34 16.318   +71 21 25.76  .03227 0.9958 108.4 24.9  913 103
2024 12 07 07  11 35 00.588   +71 20 42.02  .03238 0.9958 108.4 24.9  913 103
2024 12 07 08  11 35 44.505   +71 19 57.93  .03248 0.9958 108.3 24.9  914 104
2024 12 07 09  11 36 28.069   +71 19 13.50  .03258 0.9958 108.3 24.9  914 104